Location: Bonningues
(50.7927°N, 2.0150°E)
Time: 20:34:38
(UTC+00:00)

Cosmos 1378 - Pass Details

Date: 08 August 2020
Orbit: 491 x 502 km, 82.5° (Epoch: 22 September)

Event Time Altitude Azimuth Distance (km) Brightness Sun altitude
Rises 23:07:03 0° 351° (N) 2,610 8.3 -22.5°
Reaches altitude 10° 23:09:11 10° 354° (N) 1,719 7.0 -22.6°
Enters shadow 23:12:41 65° 47° (NE) 553 3.3 -22.7°
